1506877200.54,2120,17.13,74304.3,-1.29,-41.03,-41.23,0,*69
1506877201.77,2121,17.13,74304.5,-1.29,-41.03,-41.23,0,*68
1506877203.02,2122,17.06,74302.0,-1.29,-40.85,-41.23,0,*64
1506877204.27,2123,17.06,74300.8,-1.29,-40.97,-41.23,0,*66
1506877205.48,2124,17.13,74302.3,-1.29,-41.03,-41.29,0,*67
1506877206.71,2125,17.13,74302.8,-1.27,-41.03,-41.29,0,*68
1506877207.93,2126,17.06,74300.0,-1.29,-41.29,-41.67,0,*67
1506877209.14,2127,17.13,74306.8,-1.29,-41.03,-41.29,0,*64
1506877210.36,2128,17.13,74302.5,-1.27,-41.11,-41.41,0,*68
1506877211.55,2129,17.13,74302.3,-1.29,-41.29,-41.49,0,*64
1506877212.75,2130,17.13,74298.8,-1.29,-41.29,-41.49,0,*6C
1506877213.97,2131,17.13,74306.8,-1.29,-41.23,-41.49,0,*67
1506877215.23,2132,17.13,74304.8,-1.27,-41.03,-41.23,0,*64
1506877216.46,2133,17.06,74300.3,-1.29,-41.03,-41.23,0,*6B
1506877217.66,2134,17.06,74304.5,-1.29,-41.03,-41.29,0,*66
1506877218.94,2135,17.13,74302.8,-1.27,-40.79,-40.97,0,*61
1506877220.22,2136,17.13,74306.3,-1.27,-40.97,-41.23,0,*6C
1506877221.47,2137,17.13,74300.8,-1.27,-40.97,-41.03,0,*6F
1506877222.73,2138,17.13,74304.0,-1.27,-40.97,-41.03,0,*60
1506877223.95,2139,17.06,74302.8,-1.27,-41.11,-41.41,0,*68
1506877225.15,2140,17.13,74306.5,-1.29,-41.29,-41.49,0,*6B
1506877226.37,2141,17.13,74306.5,-1.29,-41.49,-41.67,0,*60
1506877227.6,2142,17.13,74306.3,-1.29,-41.41,-41.67,0,*6B
1506877228.84,2143,17.06,74302.5,-1.29,-41.41,-41.67,0,*6A
1506877230.03,2144,17.13,74306.5,-1.29,-41.29,-41.49,0,*6F
1506877231.23,2145,17.13,74306.8,-1.29,-41.03,-41.29,0,*60
1506877232.46,2146,17.06,74302.3,-1.29,-40.97,-41.03,0,*67
1506877233.72,2147,17.13,74304.5,-1.27,-41.23,-41.41,0,*60
1506877234.92,2148,17.13,74306.5,-1.29,-41.03,-41.29,0,*6D
1506877236.12,2149,17.06,74304.0,-1.29,-40.65,-41.03,0,*65
1506877237.32,2150,17.06,74302.5,-1.29,-40.65,-41.03,0,*6D
1506877238.55,2151,17.06,74302.8,-1.29,-40.59,-41.03,0,*63
1506877239.77,2152,17.06,74304.0,-1.27,-40.65,-41.03,0,*61
1506877240.97,2153,17.06,74306.3,-1.29,-40.47,-41.03,0,*6E
1506877242.19,2154,17.06,74302.0,-1.29,-40.65,-41.23,0,*6B
1506877243.44,2155,17.06,74304.5,-1.27,-40.79,-41.29,0,*63
1506877244.69,2156,17.06,74304.8,-1.29,-40.79,-41.23,0,*64
1506877245.92,2157,17.13,74306.8,-1.27,-40.47,-41.03,0,*64
1506877247.19,2158,17.13,74306.3,-1.27,-40.59,-41.23,0,*66
1506877248.44,2159,17.13,74304.0,-1.27,-40.85,-41.41,0,*62
1506877249.69,2160,17.06,74306.3,-1.27,-40.97,-41.49,0,*63
1506877250.88,2161,17.06,74304.3,-1.29,-41.11,-41.49,0,*63
1506877252.08,2162,17.06,74304.0,-1.29,-41.03,-41.61,0,*69
1506877253.31,2163,17.06,74304.3,-1.29,-40.97,-41.29,0,*68
1506877254.53,2164,17.06,74304.3,-1.29,-40.97,-41.49,0,*69
1506877255.78,2165,17.13,74308.8,-1.29,-40.97,-41.23,0,*64
1506877257.03,2166,17.13,74306.0,-1.27,-40.59,-41.03,0,*69
1506877258.29,2167,17.06,74302.3,-1.27,-40.79,-41.03,0,*6A
1506877259.54,2168,17.13,74304.3,-1.29,-40.97,-41.23,0,*69
1506877260.79,2169,17.06,74308.0,-1.27,-40.47,-40.85,0,*66
1506877262.02,2170,17.06,74304.3,-1.29,-40.79,-41.03,0,*62
1506877263.27,2171,17.13,74310.0,-1.27,-40.97,-41.29,0,*65
1506877264.52,2172,17.06,74306.0,-1.29,-40.97,-41.23,0,*62
1506877265.72,2173,17.06,74306.0,-1.29,-41.03,-41.41,0,*6B
1506877266.92,2174,17.06,74306.5,-1.29,-41.11,-41.41,0,*6F
1506877268.12,2175,17.06,74304.0,-1.29,-41.03,-41.29,0,*63
1506877269.36,2176,17.06,74304.3,-1.27,-41.03,-41.41,0,*60
1506877270.61,2177,17.06,74302.3,-1.29,-40.97,-41.23,0,*67
1506877271.83,2178,17.13,74306.0,-1.29,-41.23,-41.49,0,*6A
1506877273.02,2179,17.06,74306.5,-1.29,-41.11,-41.49,0,*6A
1506877274.22,2180,17.06,74306.8,-1.29,-41.03,-41.49,0,*6F
1506877275.42,2181,17.13,74308.3,-1.29,-41.11,-41.41,0,*65
1506877276.65,2182,17.13,74304.0,-1.29,-40.85,-41.03,0,*6C
1506877277.93,2183,17.13,74308.8,-1.27,-40.85,-41.23,0,*61
1506877279.15,2184,17.06,74302.5,-1.27,-41.11,-41.41,0,*6E
1506877280.4,2185,17.06,74302.8,-1.27,-40.21,-41.03,0,*6B
1506877281.65,2186,17.06,74306.8,-1.27,-40.97,-41.41,0,*63
1506877282.91,2187,17.13,74304.5,-1.29,-40.97,-41.23,0,*68
1506877284.13,2188,17.06,74304.0,-1.29,-40.65,-40.85,0,*67
1506877285.36,2189,17.06,74300.8,-1.29,-41.03,-41.23,0,*6A
1506877286.61,2190,17.06,74298.8,-1.27,-40.65,-40.97,0,*63
1506877287.86,2191,17.06,74302.8,-1.29,-40.79,-40.97,0,*61
1506877289.14,2192,17.06,74300.5,-1.27,-40.79,-40.97,0,*6C
1506877290.42,2193,17.13,74302.5,-1.27,-40.85,-40.97,0,*6E
1506877291.67,2194,17.06,74302.0,-1.27,-40.79,-41.03,0,*66
1506877292.92,2195,17.06,74300.5,-1.27,-40.79,-41.03,0,*67
1506877294.17,2196,17.06,74296.5,-1.27,-40.85,-41.29,0,*6F
1506877295.41,2197,17.06,74298.5,-1.27,-41.03,-41.29,0,*61
1506877296.66,2198,17.06,74302.3,-1.27,-40.85,-41.03,0,*69
1506877297.9,2199,17.06,74300.0,-1.27,-41.03,-41.03,0,*67
1506877299.17,2200,17.06,74306.5,-1.27,-40.79,-40.97,0,*64
1506877300.43,2201,17.06,74306.0,-1.27,-40.79,-41.03,0,*69
1506877301.7,2202,17.06,74304.8,-1.27,-40.59,-40.85,0,*67
1506877302.96,2203,17.06,74306.3,-1.27,-41.03,-41.23,0,*65
1506877304.18,2204,17.06,74308.0,-1.27,-41.11,-41.49,0,*6D
1506877305.43,2205,17.06,74308.8,-1.25,-41.23,-41.55,0,*62
1506877306.66,2206,17.06,74304.5,-1.25,-41.23,-41.61,0,*66
1506877307.85,2207,17.06,74304.0,-1.25,-41.73,-41.99,0,*65
1506877309.04,2208,17.06,74304.8,-1.25,-41.73,-42.13,0,*6B
1506877310.32,2209,17.06,74306.0,-1.27,-41.67,-42.19,0,*67
1506877311.52,2210,17.06,74304.5,-1.29,-41.61,-41.99,0,*6C
1506877312.75,2211,17.06,74304.3,-1.29,-41.67,-41.87,0,*64
1506877313.95,2212,17.06,74310.0,-1.29,-41.41,-41.61,0,*6B
1506877315.17,2213,17.06,74304.8,-1.27,-41.29,-41.61,0,*6A
1506877316.37,2214,17.06,74308.5,-1.29,-41.61,-41.87,0,*67
1506877317.56,2215,17.06,74308.5,-1.29,-41.29,-41.61,0,*62
1506877318.79,2216,17.06,74306.3,-1.29,-41.29,-41.67,0,*67
1506877319.98,2217,17.06,74308.8,-1.29,-41.29,-41.49,0,*6A
1506877321.2,2218,17.06,74306.5,-1.29,-41.23,-41.49,0,*6F
1506877322.43,2219,17.06,74308.8,-1.29,-41.23,-41.49,0,*6E
1506877323.63,2220,17.06,74306.5,-1.29,-41.03,-41.29,0,*60
1506877324.86,2221,17.06,74306.0,-1.29,-40.97,-41.29,0,*6D
1506877326.05,2222,17.06,74310.3,-1.29,-41.11,-41.41,0,*6F
1506877327.3,2223,17.06,74300.8,-1.27,-41.11,-41.23,0,*64
1506877328.55,2224,17.06,74306.5,-1.31,-41.29,-41.55,0,*6E
1506877329.83,2225,17.06,74306.0,-1.31,-41.35,-41.55,0,*62
1506877331.06,2226,17.06,74302.8,-1.29,-41.03,-41.23,0,*6C
1506877332.31,2227,17.06,74300.0,-1.29,-40.85,-41.23,0,*62
1506877333.54,2228,17.06,74304.8,-1.29,-40.97,-41.03,0,*6C
1506877334.74,2229,17.06,74302.0,-1.29,-41.11,-41.41,0,*64
1506877335.97,2230,17.06,74298.0,-1.29,-41.03,-41.23,0,*6B
1506877337.2,2231,17.06,74304.0,-1.29,-40.85,-41.03,0,*67
1506877338.45,2232,17.06,74302.8,-1.29,-40.85,-41.23,0,*66
1506877339.71,2233,17.06,74302.8,-1.27,-40.97,-41.03,0,*68
1506877340.9,2234,17.06,74296.8,-1.29,-41.11,-41.29,0,*66
1506877342.13,2235,17.06,74294.8,-1.29,-40.85,-41.03,0,*63
1506877343.36,2236,17.06,74298.3,-1.29,-40.97,-41.03,0,*63
1506877344.58,2237,17.06,74298.8,-1.29,-40.65,-40.85,0,*60
1506877345.8,2238,17.06,74298.5,-1.29,-40.65,-40.85,0,*6F
1506877347.06,2239,17.06,74298.8,-1.29,-40.59,-40.97,0,*62
1506877348.31,2240,17.06,74300.0,-1.27,-40.41,-40.65,0,*66
1506877349.56,2241,17.06,74302.0,-1.27,-40.79,-41.03,0,*6D
1506877350.84,2242,17.06,74296.8,-1.27,-40.85,-41.23,0,*6F
1506877352.09,2243,17.06,74300.3,-1.27,-40.97,-41.29,0,*67
1506877353.35,2244,17.06,74296.5,-1.27,-41.03,-41.23,0,*66
1506877354.63,2245,17.13,74304.3,-1.27,-40.79,-40.97,0,*65
1506877355.91,2246,17.06,74302.5,-1.27,-40.59,-40.85,0,*67
1506877357.13,2247,17.06,74300.8,-1.25,-40.73,-40.97,0,*6F
1506877358.38,2248,17.06,74300.0,-1.25,-40.41,-40.79,0,*61
1506877359.62,2249,17.06,74300.8,-1.25,-40.59,-40.79,0,*69
1506877360.86,2250,17.06,74300.5,-1.25,-40.59,-40.79,0,*61
1506877362.09,2251,17.06,74298.5,-1.25,-40.59,-40.91,0,*66
1506877363.29,2252,17.06,74304.0,-1.25,-40.91,-41.17,0,*6E
1506877364.51,2253,17.06,74302.5,-1.25,-40.79,-40.91,0,*66
1506877365.74,2254,17.06,74300.3,-1.25,-40.91,-41.23,0,*6F
1506877366.96,2255,17.06,74300.0,-1.25,-40.97,-41.41,0,*6C
1506877368.18,2256,17.06,74300.8,-1.25,-40.97,-41.17,0,*6C
1506877369.43,2257,17.06,74306.3,-1.25,-40.97,-41.23,0,*6A
1506877370.66,2258,17.06,74300.5,-1.25,-40.91,-41.23,0,*63
1506877371.93,2259,17.06,74304.0,-1.23,-40.59,-40.79,0,*6E
1506877373.16,2260,17.06,74306.0,-1.25,-40.91,-40.97,0,*66
1506877374.36,2261,17.06,74304.0,-1.25,-40.91,-41.17,0,*6E
1506877375.59,2262,17.06,74308.0,-1.25,-40.91,-41.23,0,*6A
1506877376.84,2263,17.06,74304.8,-1.23,-41.03,-41.35,0,*60
1506877378.05,2264,17.06,74304.5,-1.25,-40.91,-41.17,0,*6B
1506877379.3,2265,17.06,74306.0,-1.23,-40.97,-41.41,0,*69
1506877380.5,2266,17.06,74306.8,-1.25,-40.91,-41.17,0,*69
1506877381.74,2267,17.06,74302.5,-1.23,-40.79,-41.17,0,*68
1506877383.0,2268,17.06,74302.5,-1.23,-40.73,-40.97,0,*64
1506877384.23,2269,17.06,74304.3,-1.25,-41.23,-41.41,0,*6D
1506877385.44,2270,17.06,74302.0,-1.25,-40.79,-41.17,0,*68
1506877386.69,2271,17.06,74300.0,-1.25,-40.97,-41.35,0,*69
1506877387.94,2272,17.06,74302.8,-1.25,-41.23,-41.55,0,*62
1506877389.17,2273,17.06,74306.8,-1.23,-41.17,-41.41,0,*67
1506877390.37,2274,17.06,74300.8,-1.25,-40.91,-41.17,0,*6A
1506877391.61,2275,17.06,74302.5,-1.25,-40.79,-41.23,0,*6A
1506877392.84,2276,17.06,74302.3,-1.23,-40.91,-41.17,0,*6E
1506877394.07,2277,17.06,74304.8,-1.25,-41.03,-41.35,0,*63
1506877395.29,2278,17.06,74300.3,-1.25,-41.35,-41.73,0,*6B
1506877396.52,2279,17.06,74306.3,-1.25,-41.17,-41.55,0,*6E
1506877397.72,2280,17.06,74304.8,-1.25,-40.91,-41.17,0,*61
1506877398.97,2281,17.06,74304.0,-1.25,-40.97,-41.23,0,*61
1506877400.19,2282,17.06,74298.8,-1.25,-41.03,-41.23,0,*6E
1506877401.42,2283,17.06,74304.0,-1.25,-41.23,-41.41,0,*69
1506877402.67,2284,17.06,74302.8,-1.25,-40.97,-41.23,0,*64
1506877403.87,2285,17.06,74302.8,-1.25,-40.91,-41.17,0,*64
1506877405.09,2286,17.06,74298.8,-1.25,-40.79,-41.17,0,*61
1506877406.29,2287,17.06,74302.5,-1.25,-40.91,-41.17,0,*66
1506877407.54,2288,17.06,74300.5,-1.27,-40.97,-41.03,0,*68
1506877408.77,2289,17.06,74304.3,-1.25,-40.73,-40.97,0,*6D
1506877410.02,2290,17.06,74304.3,-1.23,-40.97,-41.17,0,*60
1506877411.21,2291,17.06,74304.0,-1.25,-40.73,-41.17,0,*6D
1506877412.44,2292,17.06,74304.0,-1.23,-40.73,-40.91,0,*67
1506877413.7,2293,17.06,74306.5,-1.23,-40.59,-40.91,0,*6E
1506877414.97,2294,17.06,74306.3,-1.23,-40.79,-40.97,0,*6D
1506877416.22,2295,17.06,74304.0,-1.23,-40.97,-41.17,0,*65
1506877417.51,2296,17.06,74304.8,-1.23,-41.23,-41.55,0,*6E
1506877418.71,2297,17.06,74304.8,-1.25,-40.91,-41.17,0,*67
1506877419.96,2298,17.06,74304.3,-1.23,-40.91,-41.23,0,*69
1506877421.22,2299,17.06,74306.0,-1.23,-40.91,-41.23,0,*68
1506877422.47,2300,17.06,74304.5,-1.25,-40.97,-41.23,0,*69
1506877423.72,2301,17.06,74304.5,-1.25,-40.97,-41.23,0,*68
1506877424.94,2302,17.06,74306.5,-1.25,-41.23,-41.41,0,*61
1506877426.17,2303,17.06,74310.0,-1.25,-41.03,-41.35,0,*61
1506877427.4,2304,17.06,74312.0,-1.25,-41.03,-41.35,0,*66
1506877428.65,2305,17.06,74308.5,-1.25,-41.35,-41.81,0,*6D
1506877429.9,2306,17.06,74310.0,-1.25,-41.35,-41.55,0,*67
1506877431.12,2307,17.06,74306.5,-1.25,-41.35,-41.73,0,*62
1506877432.34,2308,17.06,74308.8,-1.25,-41.41,-41.81,0,*63
1506877433.59,2309,17.06,74306.3,-1.25,-41.81,-42.19,0,*6C
1506877434.81,2310,17.06,74306.8,-1.27,-41.99,-42.25,0,*60
1506877436.06,2311,17.06,74308.8,-1.27,-41.61,-42.05,0,*64
1506877437.29,2312,17.06,74308.3,-1.29,-41.67,-41.99,0,*69
1506877438.52,2313,17.06,74310.8,-1.29,-41.67,-41.99,0,*68
1506877439.79,2314,17.06,74304.8,-1.27,-41.67,-42.05,0,*67
1506877441.05,2315,17.06,74306.3,-1.29,-41.67,-42.19,0,*65
1506877442.27,2316,17.06,74306.8,-1.29,-41.61,-42.19,0,*60
1506877443.47,2317,17.06,74306.3,-1.29,-41.61,-41.99,0,*6A
1506877444.74,2318,17.06,74302.5,-1.31,-41.55,-41.93,0,*61
1506877446.01,2319,17.06,74310.3,-1.31,-41.67,-41.93,0,*61
1506877447.23,2320,17.06,74310.0,-1.31,-41.73,-42.13,0,*65
1506877448.45,2321,17.06,74302.3,-1.31,-41.49,-41.87,0,*63
1506877449.68,2322,17.06,74304.3,-1.35,-41.49,-41.73,0,*6F
1506877450.92,2323,17.06,74302.5,-1.35,-41.49,-41.93,0,*60
1506877452.2,2324,17.06,74306.5,-1.35,-41.67,-41.93,0,*6B
1506877453.47,2325,17.06,74304.0,-1.35,-41.55,-41.93,0,*6B
1506877454.73,2326,17.06,74302.3,-1.35,-41.87,-42.31,0,*6C
1506877456.0,2327,17.06,74298.5,-1.35,-41.67,-42.05,0,*64
1506877457.24,2328,17.06,74294.8,-1.35,-41.49,-41.93,0,*6B
1506877458.5,2329,17.06,74296.5,-1.35,-41.49,-41.67,0,*61
1506877459.72,2330,17.06,74296.3,-1.35,-41.17,-41.49,0,*6E
1506877460.94,2331,17.06,74296.8,-1.35,-41.17,-41.49,0,*6F
1506877462.18,2332,17.06,74294.3,-1.35,-40.91,-41.03,0,*6D
1506877463.41,2333,17.06,74294.0,-1.35,-40.73,-41.03,0,*60
1506877464.66,2334,17.06,74296.5,-1.35,-40.85,-40.91,0,*64
1506877465.91,2335,17.06,74298.3,-1.31,-40.53,-40.85,0,*6F
1506877467.14,2336,17.06,74300.0,-1.31,-40.91,-41.11,0,*6E
1506877468.4,2337,17.06,74296.3,-1.35,-40.47,-40.85,0,*6C
1506877469.62,2338,17.06,74298.8,-1.31,-40.35,-40.53,0,*69
1506877470.86,2339,17.06,74304.3,-1.31,-40.53,-40.85,0,*63
1506877472.11,2340,17.06,74298.5,-1.29,-40.59,-40.79,0,*6D
1506877473.34,2341,17.06,74302.3,-1.31,-40.91,-41.11,0,*6E
1506877474.59,2342,17.06,74304.0,-1.31,-41.03,-41.35,0,*61
1506877475.82,2343,17.06,74302.8,-1.31,-41.03,-41.29,0,*6D
1506877477.08,2344,17.06,74304.0,-1.31,-41.03,-41.35,0,*67
1506877478.3,2345,17.06,74302.8,-1.29,-40.79,-41.03,0,*66
1506877479.53,2346,17.06,74308.3,-1.31,-41.03,-41.29,0,*68
1506877480.76,2347,17.06,74306.0,-1.29,-40.85,-41.03,0,*67
1506877482.01,2348,17.06,74304.3,-1.29,-40.97,-41.23,0,*69
1506877483.26,2349,17.06,74304.5,-1.29,-40.85,-41.23,0,*6B
1506877484.49,2350,17.0,74302.3,-1.29,-40.97,-41.03,0,*62
1506877485.72,2351,17.06,74304.8,-1.29,-41.03,-41.23,0,*6D
1506877486.92,2352,17.06,74306.3,-1.29,-41.11,-41.29,0,*67
1506877488.11,2353,17.06,74304.3,-1.29,-41.29,-41.49,0,*6B
1506877489.31,2354,17.06,74300.0,-1.29,-41.29,-41.41,0,*64
1506877490.56,2355,17.06,74306.8,-1.29,-40.97,-41.23,0,*65
1506877491.78,2356,17.06,74300.8,-1.31,-41.11,-41.29,0,*6A
1506877493.0,2357,17.06,74300.8,-1.29,-40.85,-41.29,0,*6E
1506877494.21,2358,17.06,74302.0,-1.29,-41.03,-41.29,0,*6E
1506877495.46,2359,17.06,74300.3,-1.29,-40.97,-41.23,0,*69
1506877496.66,2360,17.06,74302.3,-1.29,-41.03,-41.29,0,*65
1506877497.91,2361,17.0,74300.3,-1.29,-40.97,-41.23,0,*62
1506877499.16,2362,17.06,74298.0,-1.29,-40.97,-41.23,0,*61
1506877500.37,2363,17.06,74300.0,-1.29,-41.03,-41.29,0,*66
1506877501.6,2364,17.06,74300.0,-1.29,-40.97,-41.03,0,*65
1506877502.85,2365,17.06,74304.8,-1.29,-40.85,-41.23,0,*65
1506877504.08,2366,17.06,74302.8,-1.31,-40.91,-41.03,0,*68
1506877505.34,2367,17.06,74302.8,-1.29,-40.59,-40.97,0,*68
1506877506.57,2368,17.06,74304.0,-1.29,-40.97,-41.03,0,*69
1506877507.82,2369,17.06,74306.3,-1.27,-40.65,-40.97,0,*67
1506877509.05,2370,17.06,74304.0,-1.29,-40.85,-41.03,0,*63
1506877510.24,2371,17.06,74304.3,-1.29,-41.11,-41.29,0,*66
1506877511.47,2372,17.0,74308.8,-1.27,-41.11,-41.41,0,*65
1506877512.69,2373,17.06,74304.3,-1.27,-41.11,-41.41,0,*64
1506877513.92,2374,17.06,74304.5,-1.29,-41.41,-41.81,0,*64
1506877515.17,2375,17.06,74306.8,-1.27,-41.23,-41.41,0,*63
1506877516.4,2376,17.0,74310.0,-1.29,-41.23,-41.49,0,*66
1506877517.59,2377,17.0,74306.3,-1.29,-41.29,-41.61,0,*67
1506877518.82,2378,17.06,74310.3,-1.29,-41.41,-41.67,0,*60
1506877520.01,2379,17.0,74308.0,-1.29,-41.29,-41.49,0,*63
1506877521.2,2380,17.06,74308.3,-1.29,-41.29,-41.61,0,*6F
1506877522.43,2381,17.06,74310.0,-1.29,-41.29,-41.67,0,*68
1506877523.65,2382,17.06,74310.3,-1.31,-41.11,-41.49,0,*65
1506877524.89,2383,17.0,74306.5,-1.31,-41.11,-41.35,0,*6F
1506877526.17,2384,17.06,74306.5,-1.31,-41.35,-41.55,0,*68
1506877527.42,2385,17.06,74304.3,-1.31,-41.29,-41.55,0,*64
1506877528.65,2386,17.06,74306.5,-1.29,-41.23,-41.29,0,*6F
1506877529.87,2387,17.06,74306.3,-1.29,-41.23,-41.49,0,*68
1506877531.07,2388,17.06,74310.3,-1.29,-41.11,-41.41,0,*6E
1506877532.28,2389,17.06,74308.8,-1.29,-41.03,-41.29,0,*62
1506877533.56,2390,17.06,74310.5,-1.31,-41.35,-41.55,0,*6D
1506877534.81,2391,17.06,74314.3,-1.31,-41.35,-41.73,0,*68
1506877536.08,2392,17.0,74308.0,-1.31,-41.67,-42.05,0,*6E
1506877537.35,2393,17.0,74306.5,-1.31,-41.67,-41.93,0,*63
1506877538.58,2394,17.06,74306.5,-1.31,-41.49,-41.87,0,*6D
1506877539.8,2395,17.06,74310.3,-1.31,-41.49,-41.73,0,*67
1506877541.05,2396,17.0,74306.3,-1.35,-41.73,-42.05,0,*6B
1506877542.27,2397,17.06,74306.8,-1.35,-41.49,-41.73,0,*61
1506877543.52,2398,17.06,74304.8,-1.35,-41.11,-41.35,0,*61
1506877544.75,2399,17.0,74308.3,-1.35,-41.11,-41.29,0,*6D
1506877546.0,2400,17.06,74310.8,-1.35,-40.85,-41.03,0,*6E
1506877547.23,2401,17.06,74308.3,-1.35,-40.91,-41.11,0,*69
1506877548.47,2402,17.06,74310.8,-1.35,-41.03,-41.11,0,*60
1506877549.7,2403,17.0,74310.0,-1.31,-40.91,-41.29,0,*64
1506877550.95,2404,17.0,74308.5,-1.35,-40.85,-41.11,0,*69
1506877552.21,2405,17.06,74314.3,-1.35,-41.03,-41.35,0,*61
1506877553.43,2406,17.06,74310.5,-1.31,-40.73,-40.91,0,*6F
1506877554.67,2407,17.0,74308.3,-1.35,-41.03,-41.11,0,*65
1506877555.91,2408,17.06,74306.0,-1.31,-41.11,-41.35,0,*6B
1506877557.19,2409,17.0,74310.3,-1.31,-41.35,-41.55,0,*6A
1506877558.41,2410,17.0,74308.0,-1.35,-41.29,-41.49,0,*66
1506877559.63,2411,17.06,74308.0,-1.31,-41.11,-41.29,0,*6E
1506877560.86,2412,17.06,74312.0,-1.31,-41.03,-41.11,0,*65
1506877562.09,2413,17.0,74310.0,-1.35,-40.73,-41.03,0,*65
1506877563.32,2414,17.06,74312.0,-1.35,-40.91,-41.11,0,*6D
1506877564.58,2415,17.0,74312.0,-1.35,-40.85,-41.11,0,*69
1506877565.83,2416,17.06,74312.8,-1.31,-41.17,-41.35,0,*62
1506877567.05,2417,17.0,74308.5,-1.35,-40.53,-40.91,0,*69
1506877568.31,2418,17.0,74308.3,-1.35,-40.85,-41.03,0,*67
1506877569.56,2419,17.0,74310.0,-1.31,-40.85,-41.03,0,*62
1506877570.79,2420,17.0,74306.3,-1.35,-40.47,-40.73,0,*64
1506877572.01,2421,17.0,74308.8,-1.31,-40.73,-41.11,0,*63
1506877573.24,2422,17.06,74312.0,-1.31,-41.03,-41.29,0,*6D
1506877574.49,2423,17.0,74306.8,-1.31,-40.85,-41.03,0,*6B
1506877575.75,2424,17.0,74306.8,-1.35,-40.85,-41.03,0,*68
1506877576.98,2425,17.0,74308.5,-1.35,-40.91,-41.11,0,*6F
1506877578.22,2426,17.0,74308.8,-1.35,-40.91,-41.03,0,*6F
1506877579.45,2427,17.0,74310.3,-1.31,-40.91,-41.11,0,*69
1506877580.67,2428,17.0,74310.5,-1.31,-41.03,-41.29,0,*67
1506877581.9,2429,17.0,74310.3,-1.31,-41.03,-41.29,0,*66
1506877583.15,2430,17.0,74310.8,-1.31,-40.85,-41.11,0,*6A
1506877584.38,2431,17.0,74308.5,-1.31,-40.73,-41.03,0,*61
1506877585.66,2432,17.0,74308.8,-1.31,-41.35,-41.67,0,*63
1506877586.93,2433,17.0,74310.0,-1.31,-41.55,-41.93,0,*6F
1506877588.2,2434,17.06,74310.5,-1.31,-41.67,-42.05,0,*65
1506877589.48,2435,17.06,74310.5,-1.35,-41.55,-42.05,0,*61
1506877590.73,2436,17.0,74304.0,-1.31,-41.55,-41.87,0,*6F
1506877591.98,2437,17.0,74304.0,-1.35,-41.29,-41.67,0,*6F
1506877593.22,2438,17.0,74304.3,-1.31,-41.29,-41.55,0,*65
1506877594.46,2439,17.0,74300.5,-1.35,-40.91,-41.03,0,*61
1506877595.69,2440,17.0,74300.8,-1.35,-41.03,-41.11,0,*66
1506877596.95,2441,17.0,74304.0,-1.35,-40.85,-41.03,0,*6B
1506877598.17,2442,17.0,74304.3,-1.31,-40.65,-41.03,0,*62
1506877599.39,2443,17.0,74304.8,-1.31,-40.65,-40.91,0,*69
1506877600.65,2444,17.0,74302.3,-1.35,-40.85,-40.91,0,*64
1506877601.9,2445,17.0,74304.0,-1.31,-40.53,-40.85,0,*6F
1506877603.12,2446,17.0,74304.5,-1.31,-40.53,-40.91,0,*69
1506877604.34,2447,17.0,74306.8,-1.31,-40.47,-40.73,0,*61
1506877605.56,2448,17.0,74310.5,-1.31,-40.47,-40.73,0,*6E
1506877606.81,2449,17.0,74306.3,-1.31,-40.65,-40.85,0,*66
1506877608.03,2450,17.0,74306.8,-1.31,-40.65,-40.91,0,*6B
1506877609.26,2451,17.0,74302.0,-1.31,-40.73,-41.03,0,*67
1506877610.51,2452,17.0,74306.8,-1.31,-40.85,-41.03,0,*6D
1506877611.76,2453,17.0,74306.5,-1.31,-40.85,-41.11,0,*6F
1506877612.98,2454,17.0,74306.5,-1.31,-40.73,-41.11,0,*61
1506877614.24,2455,17.0,74300.5,-1.29,-40.79,-40.97,0,*6C
1506877615.49,2456,17.0,74304.3,-1.27,-40.97,-41.03,0,*6D
1506877616.74,2457,17.0,74304.5,-1.29,-40.59,-40.79,0,*6C
1506877617.99,2458,17.0,74304.8,-1.29,-40.79,-40.97,0,*61
1506877619.22,2459,17.0,74304.8,-1.29,-41.03,-41.23,0,*62
1506877620.47,2460,17.0,74304.3,-1.29,-40.85,-40.97,0,*69
1506877621.7,2461,17.0,74310.0,-1.29,-40.79,-41.03,0,*67
1506877622.98,2462,17.0,74304.8,-1.27,-40.85,-40.97,0,*65
1506877624.23,2463,17.0,74304.3,-1.29,-40.79,-40.97,0,*69
1506877625.48,2464,17.0,74306.8,-1.27,-40.97,-41.29,0,*64
1506877626.69,2465,17.0,74306.0,-1.29,-41.03,-41.41,0,*69
1506877627.89,2466,17.0,74308.3,-1.29,-41.03,-41.41,0,*6A
1506877629.12,2467,17.0,74310.3,-1.29,-41.23,-41.41,0,*69
1506877630.37,2468,17.0,74310.5,-1.27,-41.23,-41.49,0,*60
1506877631.6,2469,17.0,74306.0,-1.29,-41.23,-41.49,0,*6F
1506877632.83,2470,17.0,74304.8,-1.29,-41.23,-41.41,0,*6F
1506877634.05,2471,17.0,74306.8,-1.29,-41.11,-41.23,0,*6B
1506877635.25,2472,17.0,74308.3,-1.29,-41.49,-41.87,0,*6B
1506877636.45,2473,17.0,74304.3,-1.29,-41.49,-41.87,0,*6A
1506877637.72,2474,17.0,74300.8,-1.31,-41.55,-41.93,0,*6C
1506877638.99,2475,17.0,74304.5,-1.31,-41.67,-41.93,0,*6C
1506877640.25,2476,17.0,74304.8,-1.35,-41.49,-41.67,0,*6C
1506877641.53,2477,17.0,74306.0,-1.31,-41.35,-41.67,0,*62
1506877642.8,2478,17.0,74312.0,-1.31,-41.55,-41.93,0,*60
1506877644.07,2479,17.0,74312.5,-1.35,-41.67,-41.93,0,*64
1506877645.29,2480,17.0,74310.5,-1.31,-41.73,-42.13,0,*68
1506877646.56,2481,17.0,74310.5,-1.31,-41.67,-42.05,0,*6B
1506877647.84,2482,17.0,74314.3,-1.35,-41.67,-42.05,0,*6C
1506877649.12,2483,17.0,74314.8,-1.35,-41.67,-42.05,0,*6D
1506877650.39,2484,17.0,74312.3,-1.35,-41.67,-41.93,0,*66
1506877651.61,2485,17.0,74314.0,-1.39,-41.61,-41.99,0,*67
1506877652.87,2486,17.0,74310.5,-1.35,-41.55,-41.87,0,*60
1506877654.09,2487,17.0,74308.0,-1.39,-41.73,-42.13,0,*67
1506877655.34,2488,17.0,74310.5,-1.39,-41.73,-42.19,0,*62
1506877656.54,2489,17.0,74308.0,-1.41,-41.61,-41.87,0,*6B
1506877657.8,2490,17.0,74304.5,-1.39,-41.11,-41.35,0,*62
1506877659.02,2491,17.0,74306.5,-1.41,-40.65,-40.85,0,*64
1506877660.25,2492,17.0,74300.5,-1.41,-40.35,-40.59,0,*63
1506877661.5,2493,17.0,74296.8,-1.39,-40.41,-40.73,0,*66
1506877662.72,2494,17.0,74302.3,-1.35,-40.35,-40.47,0,*69
1506877664.01,2495,17.0,74300.0,-1.39,-40.41,-40.59,0,*68
1506877665.26,2496,17.0,74300.8,-1.35,-40.09,-40.35,0,*61
1506877666.49,2497,17.0,74302.8,-1.31,-40.15,-40.35,0,*69
1506877667.72,2498,17.0,74302.3,-1.31,-40.15,-40.47,0,*63
1506877668.97,2499,17.0,74298.8,-1.35,-40.85,-41.03,0,*6E
1506877670.2,2500,17.0,74300.5,-1.31,-40.73,-41.03,0,*62
1506877671.42,2501,17.0,74298.5,-1.31,-40.35,-40.65,0,*60
1506877672.64,2502,17.0,74298.0,-1.31,-40.65,-40.91,0,*6D
1506877673.9,2503,17.0,74296.5,-1.35,-40.15,-40.29,0,*6C
1506877675.15,2504,17.0,74298.5,-1.31,-40.09,-40.35,0,*6F
1506877676.39,2505,17.0,74296.0,-1.31,-40.29,-40.47,0,*69
1506877677.62,2506,17.0,74300.5,-1.29,-40.09,-40.47,0,*61
1506877678.87,2507,17.0,74304.0,-1.29,-40.79,-40.97,0,*6A
1506877680.1,2508,17.0,74302.3,-1.29,-40.79,-41.03,0,*69
1506877681.35,2509,17.0,74304.8,-1.27,-40.65,-40.85,0,*64
1506877682.54,2510,17.0,74304.5,-1.29,-40.47,-40.65,0,*6C
1506877683.79,2511,17.0,74308.8,-1.29,-40.97,-41.23,0,*63
1506877685.03,2512,17.0,74306.3,-1.27,-40.21,-40.47,0,*60
1506877686.28,2513,17.0,74306.5,-1.27,-40.47,-40.79,0,*6C
1506877687.53,2514,17.0,74306.5,-1.29,-40.59,-40.85,0,*69
1506877688.79,2515,17.0,74306.8,-1.27,-40.41,-40.65,0,*61
1506877690.01,2516,17.0,74306.0,-1.29,-40.65,-40.97,0,*67
1506877691.29,2517,17.0,74308.3,-1.27,-40.97,-41.23,0,*6B
1506877692.51,2518,17.0,74310.3,-1.27,-41.11,-41.29,0,*61
1506877693.71,2519,17.0,74308.5,-1.29,-41.11,-41.29,0,*6E
1506877694.9,2520,17.0,74308.0,-1.29,-41.29,-41.49,0,*69
1506877696.13,2521,17.0,74306.5,-1.27,-41.03,-41.29,0,*68
1506877697.38,2522,17.0,74306.5,-1.27,-40.59,-40.65,0,*6C
1506877698.63,2523,17.0,74304.8,-1.27,-40.79,-41.03,0,*6E
1506877699.86,2524,17.0,74310.3,-1.29,-40.85,-41.03,0,*64
1506877701.09,2525,17.0,74308.3,-1.27,-41.03,-41.29,0,*6C
1506877702.28,2526,17.0,74308.8,-1.29,-41.29,-41.61,0,*65
1506877703.54,2527,17.0,74310.8,-1.29,-40.97,-41.23,0,*66
1506877704.74,2528,17.0,74306.8,-1.29,-41.03,-41.29,0,*6F